[[{"header":{"parameterUnit":"m.s-1","parameterCategory":2,"la1":30.2992,"la2":30.254,"lo1":-89.0895,"lo2":-89.0443,"dy":0.0025,"dx":0.0025,"nx":19,"ny":19,"refTime":"2026-05-07T03:00:00:Z","depth":"0","parameterNumber":2,"parameterNumberName":"U-component_of_CURRENTS"},"data":[0,0,0,0.1772,0.1773,0.183,0.1831,0.1942,0.1943,0,0,0,0,0,0,0,0,0,0,0,0.1758,0.1758,0.1772,0.1773,0.183,0.1831,0.1942,0.1943,0,0,0,0,0,0,0,0,0,0,0,0.1758,0.1758,0.1758,0.1773,0.183,0.1831,0.1942,0.1892,0,0,0,0,0,0,0,0,0,0,0.1833,0.181,0.1758,0.1758,0.1774,0.183,0.1831,0.189,0.1895,0.1923,0,0.1927,0,0.1931,0.195,0.1951,0,0,0,0.1786,0.1805,0.1817,0.1758,0.1774,0.183,0.1808,0.1893,0.1899,0.1931,0.1928,0.1932,0.1932,0.1951,0.1951,0.2051,0.2051,0,0,0.1783,0.1776,0.1812,0.1821,0.1784,0.1806,0.181,0.1896,0.1904,0.1929,0.1935,0.1934,0.1952,0.1952,0.205,0.2051,0,0,0,0.1765,0.1773,0.1782,0.1817,0.182,0.1808,0.1812,0.1901,0.1902,0.1936,0.1936,0.1952,0.1953,0.205,0.205,0.2048,0,0,0,0.1764,0.1762,0.1781,0.1778,0.1818,0.1855,0.1814,0.1897,0.1906,0.1935,0.1952,0.1954,0.205,0.205,0.2047,0.2063,0,0,0,0.1756,0.1761,0.1765,0.1777,0.1795,0.1854,0.1861,0.1899,0.1906,0.1951,0.1955,0.2049,0.205,0.2046,0.2062,0.2119,0,0,0,0.1751,0.1753,0.1765,0.1774,0.1794,0.1832,0.1861,0.1893,0.1928,0.1953,0.205,0.205,0.2046,0.2061,0.2118,0.2035,0.2036,0,0,0.1748,0.1752,0.1758,0.177,0.1798,0.1826,0.1873,0.1923,0.1952,0.2026,0.2028,0.2047,0.2061,0.2119,0.2075,0.2075,0,0,0,0.1754,0.1754,0.1767,0.1787,0.182,0.1869,0.1909,0.1939,0.2004,0.1973,0.2062,0.2072,0.2108,0.2055,0.2055,0.1893,0.2054,0.2053,0.2053,0.1736,0.1755,0.1772,0.1803,0.1837,0.19,0.1949,0.2003,0.2016,0.2043,0.208,0.2137,0.2078,0.2078,0.1911,0.2083,0.2083,0.2083,0.2083,0.1728,0.1738,0.1776,0.1795,0.1856,0.1904,0.2,0.2024,0.2119,0.2101,0.2136,0.2067,0.2078,0.19,0.2083,0.2083,0.2083,0.2083,0.2083,0.1708,0.1719,0.1731,0.1778,0.1839,0.1912,0.2003,0.2072,0.2131,0.2169,0.2142,0.2141,0.1979,0.2192,0.2192,0.2193,0.2193,0.2193,0.2193,0.1687,0.1704,0.1717,0.1766,0.1806,0.1883,0.2017,0.2092,0.2155,0.2155,0.2155,0.197,0.2172,0.2162,0.2198,0.2197,0.2197,0.2196,0.2196,0.1664,0.1671,0.1693,0.1722,0.1813,0.1854,0.1983,0.2075,0.216,0.2169,0.1935,0.2157,0.2163,0.2161,0.2151,0.2184,0.2184,0.2184,0.2184,0.1646,0.1653,0.1679,0.1724,0.1794,0.1848,0.1865,0.1914,0.19,0.1818,0.1838,0.1742,0.175,0.1727,0.1735,0.1715,0.1636,0.1635,0.1635,0.1635,0.1648,0.1659,0.1705,0.1784,0.1818,0.1746,0.1605,0.1552,0.1599,0.163,0.1653,0.1499,0.1524,0.1477,0.1502,0.1467,0,0]},{"header":{"parameterUnit":"m.s-1","parameterCategory":2,"la1":30.2992,"la2":30.254,"lo1":-89.0895,"lo2":-89.0443,"dy":0.0025,"dx":0.0025,"nx":19,"ny":19,"refTime":"2026-05-07T03:00:00:Z","depth":"0","parameterNumber":3,"parameterNumberName":"V-component_of_CURRENTS"},"data":[0,0,0,0.0337,0.0338,0.0368,0.0368,0.0393,0.0393,0,0,0,0,0,0,0,0,0,0,0,0.0329,0.0329,0.0337,0.0338,0.0368,0.0368,0.0393,0.0393,0,0,0,0,0,0,0,0,0,0,0,0.0329,0.0329,0.0329,0.0338,0.0368,0.0368,0.0393,0.0373,0,0,0,0,0,0,0,0,0,0,0.0346,0.0334,0.0329,0.0329,0.0338,0.0368,0.0368,0.0373,0.0375,0.0376,0,0.0384,0,0.0389,0.0395,0.0395,0,0,0,0.0337,0.0332,0.0347,0.0329,0.0339,0.0368,0.0354,0.0374,0.0376,0.0378,0.0384,0.0385,0.0389,0.0395,0.0395,0.0439,0.0439,0,0,0.0335,0.0327,0.0345,0.0348,0.0351,0.0353,0.0355,0.0375,0.0375,0.0385,0.0386,0.039,0.0395,0.0395,0.0439,0.0439,0,0,0,0.0331,0.0326,0.034,0.0347,0.0354,0.0354,0.0356,0.0374,0.0381,0.0386,0.039,0.0395,0.0395,0.0438,0.0439,0.0476,0,0,0,0.033,0.0324,0.0339,0.0334,0.0353,0.0365,0.0355,0.038,0.0382,0.039,0.0395,0.0395,0.0438,0.0439,0.0474,0.0501,0,0,0,0.0327,0.0323,0.033,0.0333,0.0347,0.0365,0.0372,0.038,0.0384,0.0395,0.0396,0.0438,0.0438,0.0472,0.0498,0.0576,0,0,0,0.0313,0.0329,0.0329,0.0349,0.0347,0.0379,0.0372,0.0391,0.0402,0.0395,0.0438,0.0439,0.0472,0.0496,0.0573,0.066,0.068,0,0,0.0327,0.033,0.0343,0.0345,0.0378,0.0374,0.0409,0.0417,0.0414,0.0429,0.043,0.0475,0.0498,0.0575,0.0703,0.0722,0,0,0,0.0344,0.0353,0.0364,0.0382,0.0401,0.0427,0.0431,0.0441,0.0464,0.0424,0.048,0.0494,0.0541,0.0587,0.0602,0.0599,0.0442,0.0442,0.0442,0.0346,0.0363,0.039,0.0415,0.0435,0.0462,0.049,0.0505,0.0489,0.0509,0.0527,0.0616,0.0664,0.0676,0.0671,0.0525,0.0525,0.0525,0.0525,0.0371,0.0389,0.0413,0.0445,0.0474,0.0502,0.0547,0.0553,0.0617,0.0572,0.0617,0.0627,0.0695,0.0684,0.0528,0.0527,0.0527,0.0527,0.0526,0.0373,0.0386,0.0408,0.0458,0.0502,0.0536,0.0633,0.0641,0.0662,0.0702,0.0782,0.0782,0.0773,0.0735,0.0735,0.0736,0.0736,0.0737,0.0737,0.0365,0.039,0.0428,0.0476,0.0516,0.0589,0.0689,0.0766,0.0843,0.0847,0.0848,0.0812,0.068,0.0673,0.0744,0.0743,0.0742,0.0741,0.0741,0.0372,0.0386,0.0444,0.0486,0.0598,0.075,0.0827,0.1016,0.1062,0.1118,0.1022,0.0936,0.0944,0.0932,0.0931,0.1065,0.1065,0.1065,0.1065,0.0372,0.0384,0.0473,0.0557,0.068,0.0826,0.1127,0.1264,0.1255,0.1227,0.1151,0.1103,0.109,0.1102,0.1086,0.1086,0.1256,0.1256,0.1257,0.0382,0.0411,0.048,0.0574,0.072,0.0962,0.1298,0.1482,0.1375,0.1259,0.1132,0.1124,0.1041,0.1021,0.1023,0.1001,0.0995,0,0]}],[{"header":{"parameterUnit":"m.s-1","parameterCategory":2,"la1":30.2992,"la2":30.254,"lo1":-89.0895,"lo2":-89.0443,"dy":0.0025,"dx":0.0025,"nx":19,"ny":19,"refTime":"2026-05-07T03:00:00:Z","depth":"2","parameterNumber":2,"parameterNumberName":"U-component_of_CURRENTS"},"data":[0,0,0,0.1358,0.136,0.1448,0.1448,0.1547,0.1548,0,0,0,0,0,0,0,0,0,0,0,0.1328,0.1329,0.1358,0.136,0.1448,0.1448,0.1547,0.1548,0,0,0,0,0,0,0,0,0,0,0,0.1328,0.1329,0.1329,0.136,0.1447,0.1448,0.1547,0.1486,0,0,0,0,0,0,0,0,0,0,0.1403,0.138,0.1328,0.1329,0.1361,0.1447,0.1448,0.1483,0.149,0.1501,0,0.1511,0,0.1528,0.1553,0.1554,0,0,0,0.1369,0.1374,0.1391,0.1329,0.1361,0.1447,0.141,0.1487,0.1494,0.1509,0.1513,0.1516,0.1529,0.1554,0.1554,0.1625,0.1625,0,0,0.1364,0.1353,0.1386,0.1395,0.138,0.1408,0.1413,0.1492,0.1501,0.1513,0.1519,0.1531,0.1554,0.1555,0.1625,0.1625,0,0,0,0.1344,0.135,0.1365,0.1391,0.1406,0.141,0.1416,0.1498,0.1501,0.152,0.1532,0.1555,0.1556,0.1625,0.1625,0.162,0,0,0,0.1341,0.1337,0.1363,0.1359,0.1404,0.1456,0.1421,0.1496,0.1505,0.1532,0.1555,0.1557,0.1624,0.1625,0.162,0.1648,0,0,0,0.1325,0.1336,0.1343,0.1357,0.1391,0.1455,0.1464,0.1498,0.1512,0.1554,0.1557,0.1624,0.1625,0.162,0.1646,0.1692,0,0,0,0.1315,0.1323,0.1343,0.1357,0.139,0.1431,0.1464,0.1505,0.1538,0.1555,0.1625,0.1625,0.162,0.1646,0.169,0.1588,0.1587,0,0,0.1315,0.1323,0.1329,0.1349,0.1369,0.142,0.1456,0.1513,0.1548,0.1599,0.1601,0.162,0.1646,0.1692,0.161,0.1608,0,0,0,0.1323,0.1327,0.1337,0.1357,0.139,0.1443,0.1491,0.1524,0.1588,0.1569,0.1629,0.1647,0.1675,0.161,0.1609,0.1627,0.1627,0.1627,0.1627,0.1318,0.1327,0.1341,0.1363,0.1394,0.1458,0.1506,0.1565,0.1582,0.1614,0.1648,0.169,0.1619,0.1617,0.1638,0.1638,0.1638,0.1638,0.1638,0.131,0.1316,0.1343,0.136,0.1413,0.1457,0.1541,0.1572,0.1664,0.1662,0.1689,0.1615,0.1614,0.1638,0.1638,0.1638,0.1638,0.1638,0.1638,0.1301,0.1304,0.132,0.1354,0.1418,0.1482,0.1556,0.1621,0.1683,0.1717,0.1678,0.1676,0.171,0.174,0.174,0.174,0.1741,0.1741,0.1741,0.1279,0.1293,0.1314,0.1364,0.1407,0.1481,0.1598,0.1651,0.1697,0.1695,0.1694,0.1726,0.1722,0.1718,0.1746,0.1745,0.1744,0.1744,0.1744,0.1265,0.1274,0.1293,0.1331,0.1427,0.1444,0.1562,0.1607,0.169,0.168,0.1678,0.1678,0.1684,0.1683,0.1678,0.1695,0.1695,0.1695,0.1695,0.1255,0.1263,0.1293,0.1346,0.1404,0.1433,0.1404,0.1399,0.1475,0.1471,0.1481,0.1397,0.1404,0.1391,0.1397,0.1385,0.1326,0.1325,0.1324,0.1256,0.1253,0.1296,0.1343,0.1396,0.1379,0.1247,0.1083,0.1124,0.1309,0.1407,0.1672,0.1572,0.1574,0.1571,0.1574,0.1562,0,0]},{"header":{"parameterUnit":"m.s-1","parameterCategory":2,"la1":30.2992,"la2":30.254,"lo1":-89.0895,"lo2":-89.0443,"dy":0.0025,"dx":0.0025,"nx":19,"ny":19,"refTime":"2026-05-07T03:00:00:Z","depth":"2","parameterNumber":3,"parameterNumberName":"V-component_of_CURRENTS"},"data":[0,0,0,0.0216,0.0216,0.0252,0.0252,0.0278,0.0278,0,0,0,0,0,0,0,0,0,0,0,0.0205,0.0206,0.0216,0.0217,0.0252,0.0252,0.0278,0.0278,0,0,0,0,0,0,0,0,0,0,0,0.0205,0.0206,0.0206,0.0217,0.0252,0.0252,0.0278,0.0256,0,0,0,0,0,0,0,0,0,0,0.0224,0.0211,0.0205,0.0206,0.0217,0.0252,0.0252,0.0255,0.0257,0.0257,0,0.0266,0,0.0272,0.028,0.028,0,0,0,0.0216,0.0209,0.0225,0.0206,0.0217,0.0252,0.0236,0.0257,0.0259,0.026,0.0266,0.0267,0.0272,0.028,0.028,0.0329,0.0329,0,0,0.0214,0.0205,0.0223,0.0227,0.0231,0.0235,0.0237,0.0258,0.0259,0.0266,0.0268,0.0273,0.028,0.028,0.0328,0.0329,0,0,0,0.0209,0.0204,0.0219,0.0225,0.0233,0.0236,0.0238,0.0258,0.0265,0.0268,0.0273,0.028,0.028,0.0328,0.0328,0.0365,0,0,0,0.0208,0.0201,0.0218,0.0212,0.0233,0.0247,0.0237,0.0263,0.0266,0.0273,0.028,0.0281,0.0327,0.0328,0.0363,0.0395,0,0,0,0.0203,0.02,0.0207,0.0212,0.0228,0.0247,0.0255,0.0264,0.0269,0.028,0.0281,0.0327,0.0328,0.0361,0.0391,0.046,0,0,0,0.0188,0.0205,0.0207,0.0228,0.0228,0.0264,0.0255,0.0277,0.0289,0.028,0.0328,0.0328,0.0361,0.0389,0.0457,0.0517,0.0535,0,0,0.0203,0.0207,0.0221,0.0223,0.026,0.0259,0.0298,0.0306,0.0303,0.0318,0.0319,0.0364,0.0391,0.0459,0.057,0.0586,0,0,0,0.0222,0.0233,0.0244,0.0265,0.0287,0.0317,0.0322,0.0333,0.0357,0.0314,0.0372,0.0389,0.0431,0.0461,0.0474,0.0333,0.0333,0.0333,0.0332,0.0229,0.0247,0.0277,0.0305,0.0328,0.0357,0.0387,0.0403,0.0384,0.0405,0.0424,0.0509,0.0541,0.0552,0.0421,0.0422,0.0422,0.0422,0.0422,0.0259,0.0278,0.0305,0.0341,0.0373,0.0406,0.0452,0.0455,0.0516,0.0473,0.0511,0.0504,0.0568,0.0425,0.0424,0.0424,0.0424,0.0423,0.0423,0.0264,0.0277,0.0303,0.0358,0.0408,0.0445,0.0542,0.055,0.0563,0.06,0.0655,0.0654,0.0549,0.0626,0.0626,0.0626,0.0627,0.0627,0.0627,0.0257,0.0285,0.0326,0.038,0.0424,0.0504,0.0603,0.0673,0.073,0.0721,0.0721,0.0579,0.0572,0.0562,0.0634,0.0633,0.0632,0.0632,0.0631,0.0266,0.028,0.0341,0.0388,0.0509,0.0662,0.0734,0.0895,0.0932,0.097,0.0798,0.0792,0.0796,0.0785,0.0781,0.0906,0.0906,0.0906,0.0906,0.0268,0.028,0.0371,0.0458,0.0592,0.0736,0.099,0.1053,0.1022,0.0951,0.0948,0.0894,0.0883,0.0888,0.0874,0.087,0.1018,0.1018,0.1018,0.028,0.0306,0.0378,0.0474,0.0633,0.0868,0.1125,0.1151,0.102,0.1017,0.0913,0.0924,0.0835,0.0821,0.0817,0.08,0.0788,0,0]}],[{"header":{"parameterUnit":"m.s-1","parameterCategory":2,"la1":30.2992,"la2":30.254,"lo1":-89.0895,"lo2":-89.0443,"dy":0.0025,"dx":0.0025,"nx":19,"ny":19,"refTime":"2026-05-07T03:00:00:Z","depth":"4","parameterNumber":2,"parameterNumberName":"U-component_of_CURRENTS"},"data":[0,0,0,0.0455,0.0456,0.0518,0.0519,0.059,0.0591,0,0,0,0,0,0,0,0,0,0,0,0.045,0.045,0.0455,0.0456,0.0518,0.0519,0.059,0.0591,0,0,0,0,0,0,0,0,0,0,0,0.045,0.045,0.045,0.0456,0.0518,0.0519,0.059,0.0551,0,0,0,0,0,0,0,0,0,0,0.0494,0.0487,0.045,0.045,0.0456,0.0518,0.0519,0.055,0.0554,0.0552,0,0.0558,0,0.0557,0.0593,0.0593,0,0,0,0.0481,0.0484,0.0487,0.045,0.0456,0.0518,0.0497,0.0552,0.0556,0.0557,0.0559,0.0561,0.0558,0.0593,0.0593,0.0636,0.0636,0,0,0.0478,0.0476,0.0484,0.0489,0.0467,0.0495,0.0499,0.0555,0.0565,0.0559,0.0562,0.0559,0.0593,0.0594,0.0636,0.0636,0,0,0,0.0451,0.0474,0.0477,0.0487,0.0488,0.0496,0.0501,0.0563,0.056,0.0563,0.056,0.0593,0.0594,0.0636,0.0636,0.0671,0,0,0,0.045,0.0456,0.0475,0.0477,0.0487,0.0528,0.0507,0.0557,0.0563,0.056,0.0593,0.0594,0.0635,0.0636,0.0669,0.0648,0,0,0,0.0448,0.0456,0.0458,0.0476,0.0488,0.0527,0.0529,0.0559,0.0559,0.0593,0.0594,0.0635,0.0636,0.0668,0.0647,0.0722,0,0,0,0.0451,0.0448,0.0459,0.0457,0.0487,0.0498,0.0529,0.056,0.0589,0.0594,0.0635,0.0636,0.0668,0.0646,0.0721,0.0578,0,0,0,0.0442,0.0447,0.0443,0.0453,0.0445,0.0492,0.0515,0.0572,0.0596,0.062,0.0621,0.067,0.0647,0.0722,0.0608,0,0,0,0,0.0437,0.043,0.0429,0.0433,0.0448,0.0488,0.0538,0.0571,0.0642,0.0609,0.067,0.0654,0.0701,0.0612,0.0638,0.0638,0.0638,0.0638,0.0638,0.0419,0.042,0.0413,0.0422,0.0436,0.0494,0.0541,0.06,0.0629,0.0676,0.0685,0.076,0.0665,0.0705,0.0706,0.0706,0.0706,0.0706,0.0706,0.0381,0.0379,0.0394,0.0395,0.0443,0.0479,0.0562,0.0618,0.0711,0.0708,0.0756,0.0654,0.071,0.0709,0.0708,0.0708,0.0708,0.0707,0.0707,0.0367,0.0368,0.0386,0.0389,0.0427,0.0485,0.0555,0.0643,0.0734,0.0772,0.0736,0.079,0.0788,0.084,0.084,0.084,0.084,0.084,0.0841,0.0355,0.0364,0.0358,0.0366,0.037,0.0441,0.0565,0.0624,0.0727,0.0735,0.0805,0.0805,0.08,0.0796,0.0845,0.0844,0.0843,0.0843,0.0843,0.0321,0.0341,0.0304,0.0299,0.0282,0.0317,0.0468,0.0596,0.0663,0.0688,0.0733,0.0738,0.0716,0.0714,0.0705,0.0729,0.0727,0.0726,0,0.0309,0.0305,0.0237,0.0164,0.014,0.0218,0.031,0.042,0.0545,0.0541,0.0625,0.067,0.0675,0.0641,0.0637,0.0621,0,0,0,0.0276,0.0261,0.0176,0.0094,0.0031,0.017,0.0336,0.037,0.0551,0.0553,0.0685,0.0695,0.0684,0.0856,0.0833,0.0828,0.082,0,0]},{"header":{"parameterUnit":"m.s-1","parameterCategory":2,"la1":30.2992,"la2":30.254,"lo1":-89.0895,"lo2":-89.0443,"dy":0.0025,"dx":0.0025,"nx":19,"ny":19,"refTime":"2026-05-07T03:00:00:Z","depth":"4","parameterNumber":3,"parameterNumberName":"V-component_of_CURRENTS"},"data":[0,0,0,0.0189,0.0189,0.0232,0.0233,0.028,0.028,0,0,0,0,0,0,0,0,0,0,0,0.0177,0.0178,0.0189,0.0189,0.0232,0.0233,0.028,0.028,0,0,0,0,0,0,0,0,0,0,0,0.0177,0.0177,0.0178,0.019,0.0232,0.0233,0.028,0.0251,0,0,0,0,0,0,0,0,0,0,0.0211,0.0197,0.0177,0.0178,0.019,0.0232,0.0233,0.025,0.0253,0.0255,0,0.026,0,0.0266,0.0282,0.0282,0,0,0,0.0198,0.0194,0.0206,0.0178,0.019,0.0232,0.0215,0.0252,0.0255,0.0259,0.0261,0.0263,0.0267,0.0282,0.0283,0.0347,0.0348,0,0,0.0195,0.0186,0.0203,0.0208,0.0199,0.0214,0.0217,0.0254,0.0256,0.0261,0.0264,0.0267,0.0283,0.0283,0.0347,0.0348,0,0,0,0.0183,0.0185,0.0196,0.0206,0.0211,0.0215,0.0218,0.0255,0.0258,0.0264,0.0268,0.0283,0.0283,0.0347,0.0347,0.0382,0,0,0,0.0182,0.0177,0.0194,0.019,0.0211,0.0234,0.0218,0.0256,0.026,0.0268,0.0283,0.0284,0.0346,0.0347,0.038,0.0403,0,0,0,0.0176,0.0176,0.018,0.0189,0.0204,0.0233,0.024,0.0257,0.0262,0.0282,0.0284,0.0346,0.0347,0.0378,0.0399,0.0431,0,0,0,0.0167,0.0181,0.018,0.0201,0.0203,0.0249,0.0239,0.0269,0.0289,0.0283,0.0346,0.0347,0.0377,0.0397,0.0429,0.0385,0,0,0,0.0182,0.0183,0.0197,0.0197,0.0247,0.0243,0.0296,0.031,0.0307,0.0333,0.0335,0.038,0.0399,0.0431,0.045,0,0,0,0,0.02,0.0212,0.0226,0.0253,0.028,0.0318,0.0328,0.0339,0.0369,0.0322,0.0393,0.0404,0.0423,0.0391,0.0353,0.0352,0.0352,0.0352,0.0352,0.021,0.0233,0.0271,0.0305,0.0335,0.0373,0.04,0.0418,0.0403,0.0424,0.0442,0.0503,0.0472,0.0448,0.0448,0.0448,0.0448,0.0448,0.0448,0.0245,0.0267,0.0308,0.0354,0.0396,0.0439,0.0481,0.048,0.0518,0.0492,0.0508,0.0441,0.0452,0.0451,0.0451,0.045,0.045,0.045,0.045,0.0249,0.0265,0.03,0.0374,0.0443,0.0488,0.0559,0.0574,0.0562,0.0578,0.0546,0.0535,0.0522,0.0586,0.0587,0.0587,0.0587,0.0587,0.0587,0.0235,0.0273,0.0326,0.04,0.0462,0.0542,0.0615,0.0633,0.0628,0.0594,0.0595,0.055,0.0545,0.053,0.0591,0.0591,0.059,0.059,0.059,0.0238,0.0254,0.0333,0.0398,0.0546,0.0602,0.0671,0.0672,0.0688,0.0653,0.0599,0.0598,0.0584,0.0579,0.0564,0.0637,0.0637,0.0636,0,0.0231,0.0246,0.0358,0.0471,0.0587,0.0653,0.0682,0.0691,0.0651,0.0638,0.0679,0.0621,0.0618,0.0602,0.0597,0.058,0,0,0,0.0238,0.0269,0.035,0.0468,0.0614,0.0659,0.0691,0.0675,0.0657,0.0635,0.0628,0.063,0.0613,0.0603,0.0578,0.0572,0.0547,0,0]}]]